Showing default

RESOURCESAT 2, 37387

Orbit data source: Space-Track

RESOURCESAT 2, 37387 is a payload satellite owned by ISRO (IN) in SSO that was launched on Wed, 20 Apr 2011 UTC via a PSLV launch vehicle from the Sirharikota (SRI). Payload-class satellites include a variety of spacecraft equipped with specific instruments for various scientific and technological missions. These include communications satellites like Starlink; space stations such as the ISS; scientific satellites like the Hubble; Earth observation satellites from companies like Planet Labs, Umbra, and HawkEye 360; GPS; miniature CubeSats for education and research; and military/defense satellites.

Loading next visibility...
Identifier
37387, 2011-015A
Orbit
SSO
Country
Flag of ININ / IND
Related business
Manufacturer
ISAC/HAL
Mission
Operational Civil Imaging
Bus & Motor
IRS, AOCS
Mass
1,206 kg wet, 1,206 kg dry
Launch date (UTC)
2011-04-20 (15 years ago)
Launch vehicle
PSLV
Launch site
Sirharikota (SRI)
Object type
Payload
Rocket body
Debris
Shape & HBR
Box + 2 Pan, 6.0 m
Radar Cross Section
12.977 m², Large (>1 m²)

Expand to show TLE details & history
Last TLE update: 9 hours ago

TLE from 9 hours ago
0 RESOURCESAT 2
1 37387U 11015A   25346.92641865  .00000243  00000-0  13092-3 0  9994
2 37387  98.7878  50.4774 0006432  42.2892 317.8780 14.21597368759715
Epoch: 2025-12-12T22:14Z
TLE epoch observation values (Epoch: 2025-12-12T22:14:02.571Z)
Latitude
-0.00002°
Longitude
-4.89434°
Altitude
819.436 km
Speed
7.445 km/s
True Right ascension
03h 21m 54s
True Declination
0° 00' 00"
Sunlit
Object was in full shadow at epoch
Visualization orbit readout
Latitude
Unknown
Longitude
Unknown
Altitude
Unknown
Speed
Unknown
Apparent Right ascension
Unknown
Apparent Declination
Unknown
Sunlit
N/A
Visualization observer readout
Local Sidereal Time
05:23:01
Azimuth
Unknown
Elevation
Unknown
Doppler factor
Unknown
Orbital elements
Apogee altitude
821.744 km
Perigee altitude
812.488 km
Semi-major axis
7,195.253 km
Eccentricity
0.00064
Inclination
98.7878°
RAAN
50.4774°
Arg. of periapsis
42.2892°
True anomaly
317.82854°
Mean anomaly
317.878°
Eccentric anomaly
317.85327°
Mean motion
3.5561 °/min
Orbital period
101.23 mins
BSTAR
0.00013092
Loading maneuver chart data...
Computing Atmospheric mass density...
Loading historical data...
Loading historical data...
Loading historical data...
Loading historical data...
Loading historical data...
Loading historical data...
Loading historical data...
Other satellites on launch #15 in the year 2011 (2011-04-20 UTC)

Documentation

Showing up to 5 results
|